STARLINK-31150

decayed
NORAD ID: 58730 Int'l Des: 2024-005 Owner: SPXS Country: US Constellation: starlink
LEOCIRCULAR
Gruppe

Über STARLINK-31150

Beschreibung wird geladen...

Höhenverlauf

Altitude vs Time

uPlot chart will show altitude changes over time

Zweizeiliger Elementsatz

1 58730U 24005C 25171.90963612 .29759815 92604-5 31835-2 0 9990
2 58730 42.9760 7.5508 0012405 282.2842 179.3018 16.36190741 83321
Epoch: 20. Juni 2025 • Age: 2079 hours

Aktueller Status

Position data unavailable
Startdatum 7. Jan. 2024
Alter 1.6 years
Verglühungsdatum 21. Juni 2025
Typ internet

Technische Details

Klassifizierung Payload
Masse 730.00 kg
Trockenmasse 700.00 kg
Gesamtmasse 730.00 kg
Länge 0.30 m
Durchmesser 4.10 m
Spannweite 29.00 m
Form Box + pan
Hersteller SPXS
Bus-Typ Starlink V2M
Phasenstatus Reentered
Besitzer/Staat SPXS/US

Große Konstellationen

Loading constellations...